Погода в Боромле

Украина / Сумская область     50°37′37″N   34°58′23″E
темп.,
°C
ветер,
м/с
пор.,
м/с
влажн.,
%
обл.,
%
осадки,
мм/ч
давл.,
гПа
погр.,
м
19 апреля, пн
пн1900:00+5св2492100 0.3 1017217
03:00+5ссв2594100 0.6 1017218
06:00+5св2394100 0.0 1016110
09:00+6св2389100 0.1 1016260
12:00+9св327296 0.0 1016814
15:00+11св225871 0.1 10151387
18:00+11ссв336118 0.1 1014979
21:00+7ссв337931 0.1 101551
20 апреля, вт
вт2000:00+6ссв227810 0.0 101323
03:00+7св2278100 0.0 101250
06:00+7св358889 0.0 1010124
09:00+9всв3582100 0.1 1010346
12:00+12всв4568100 0.7 10081181
15:00+10св4785100 1.6 1006529
18:00+9ссв5892100 0.4 1004438
21:00+8с4792100 0.6 1004433
21 апреля, ср
ср2100:00+7сз369496 0.1 1004381
03:00+7з3695100 0.2 1006388
06:00+7зсз499255 0.6 1007644
09:00+7з468093 0.6 1010625
12:00+10з6766100 0.6 10111319
15:00+10зюз686491 0.8 10131255
18:00+10юз476556 0.1 1014744
21:00+7ююз3578100 0.1 101585
22 апреля, чт
чт2200:00+6ю348160 0.0 101661
03:00+5ю398237 0.0 1016169
06:00+5ю410898 0.0 1017178
09:00+11ююз57725 0.0 1018431
12:00+15юз56545 0.2 10181517
15:00+17юз454474 0.4 10172238
18:00+14юз2462100 0.0 101886
21:00+12ю3465100 0.0 101978
23 апреля, пт
пт2300:00+11ю376996 0.0 1019148
03:00+9ю367159 0.0 101886
06:00+9ююв3777100 0.0 1018144
09:00+12ю596844 0.0 1018373
12:00+17ю794734 0.0 10171838
15:00+15ююз7115668 0.3 10151385
18:00+16ю71153100 0.1 10141031
21:00+11зюз3682100 1.3 1015193